NJE629K EKRK-EGTE

Flight info

Callsign NJE629K
Flight time N/A
Altitude 40000
Route DOBEL N872 PAM L980 IDRID M40 NILON L610 GILDA L620 DAWLY
Aircraft CL60/M-SBDE1E2E3FGHIJ1J4J5J7M3RWXYZ/LB1V1D1

Departure

Time N/A
Airport Copenhagen Roskilde Airport (EKRK)

Arrival

Time 2026-04-29 21:15
Airport Exeter International Airport (EGTE)
Time Latitude Longitude Altitude Speed Heading
2026-04-29 19:55 52.93901 6.22902 40413 ft 499 kts 230°
2026-04-29 19:55 52.89321 6.14091 40400 ft 500 kts 230°
2026-04-29 19:56 52.84763 6.05354 40405 ft 500 kts 230°
2026-04-29 19:56 52.80205 5.96649 40418 ft 499 kts 230°
2026-04-29 19:57 52.76410 5.89423 40428 ft 499 kts 230°
2026-04-29 19:57 52.71075 5.79305 40414 ft 500 kts 230°
2026-04-29 19:58 52.66329 5.70805 40417 ft 499 kts 229°
2026-04-29 19:58 52.62531 5.61314 40383 ft 494 kts 249°
2026-04-29 19:59 52.59959 5.50755 40369 ft 493 kts 251°
2026-04-29 19:59 52.57407 5.40226 40365 ft 492 kts 251°
2026-04-29 20:00 52.54825 5.29778 40366 ft 492 kts 249°
2026-04-29 20:00 52.52169 5.19368 40361 ft 493 kts 249°
2026-04-29 20:01 52.49461 5.08975 40359 ft 493 kts 249°
2026-04-29 20:01 52.46737 4.98606 40375 ft 493 kts 249°
2026-04-29 20:02 52.44012 4.88309 40390 ft 493 kts 248°
2026-04-29 20:02 52.41724 4.79718 40390 ft 493 kts 248°
2026-04-29 20:03 52.38499 4.67682 40377 ft 493 kts 248°
2026-04-29 20:03 52.35718 4.57365 40371 ft 493 kts 248°
2026-04-29 20:04 52.32928 4.47072 40371 ft 494 kts 248°
2026-04-29 20:04 52.30133 4.36814 40358 ft 493 kts 248°
2026-04-29 20:05 52.27344 4.26624 40352 ft 492 kts 246°
2026-04-29 20:05 52.24542 4.16439 40346 ft 493 kts 246°
2026-04-29 20:06 52.21726 4.06249 40345 ft 493 kts 246°
2026-04-29 20:06 52.18912 3.96111 40344 ft 492 kts 246°
2026-04-29 20:07 52.16068 3.85913 40366 ft 491 kts 246°
2026-04-29 20:07 52.13238 3.75811 40338 ft 491 kts 246°
2026-04-29 20:08 52.10875 3.67409 40340 ft 491 kts 246°
2026-04-29 20:08 52.07549 3.55633 40324 ft 490 kts 246°
2026-04-29 20:09 52.04683 3.45536 40330 ft 489 kts 245°
2026-04-29 20:09 52.01824 3.35504 40308 ft 489 kts 245°
2026-04-29 20:10 51.98968 3.25528 40314 ft 488 kts 244°
2026-04-29 20:10 51.96667 3.15245 40310 ft 487 kts 257°
2026-04-29 20:11 51.95729 3.04344 40323 ft 486 kts 264°
2026-04-29 20:11 51.95020 2.93437 40332 ft 486 kts 264°
2026-04-29 20:12 51.94298 2.82524 40307 ft 485 kts 264°
2026-04-29 20:12 51.93567 2.71633 40307 ft 484 kts 264°
2026-04-29 20:13 51.92823 2.60719 40305 ft 484 kts 264°
2026-04-29 20:13 51.92077 2.49915 40316 ft 485 kts 264°
2026-04-29 20:14 51.91318 2.39071 40305 ft 484 kts 264°
2026-04-29 20:14 51.90708 2.28205 40311 ft 484 kts 268°
2026-04-29 20:15 51.90468 2.17300 40304 ft 483 kts 268°
2026-04-29 20:15 51.90215 2.06502 40320 ft 483 kts 267°
2026-04-29 20:16 51.89948 1.95596 40315 ft 482 kts 267°
2026-04-29 20:16 51.89004 1.84906 40300 ft 480 kts 253°
2026-04-29 20:17 51.86953 1.74641 40320 ft 479 kts 250°
2026-04-29 20:17 51.84875 1.64457 40299 ft 479 kts 250°
2026-04-29 20:18 51.82773 1.54212 40300 ft 479 kts 250°
2026-04-29 20:18 51.80676 1.44049 40299 ft 479 kts 250°
2026-04-29 20:19 51.78560 1.33843 40289 ft 479 kts 249°
2026-04-29 20:19 51.76446 1.23701 40310 ft 478 kts 249°
2026-04-29 20:20 51.74314 1.13529 40294 ft 477 kts 249°
2026-04-29 20:20 51.72193 1.03456 40297 ft 475 kts 249°
2026-04-29 20:21 51.69790 0.93545 40291 ft 471 kts 239°
2026-04-29 20:21 51.66468 0.84744 40280 ft 470 kts 236°
2026-04-29 20:22 51.63040 0.75805 40285 ft 471 kts 238°
2026-04-29 20:22 51.60616 0.65990 40274 ft 474 kts 252°
2026-04-29 20:23 51.58293 0.56090 40271 ft 472 kts 243°
2026-04-29 20:23 51.55070 0.46943 40271 ft 468 kts 234°
2026-04-29 20:24 51.51296 0.38411 40259 ft 467 kts 232°
2026-04-29 20:24 51.47507 0.29923 40254 ft 467 kts 232°
2026-04-29 20:25 51.43714 0.21457 40256 ft 467 kts 232°
2026-04-29 20:25 51.39921 0.13019 40250 ft 467 kts 232°
2026-04-29 20:26 51.36128 0.04611 40254 ft 466 kts 232°
2026-04-29 20:26 51.32325 -0.03792 40251 ft 465 kts 232°
2026-04-29 20:27 51.29149 -0.10789 40225 ft 465 kts 232°
2026-04-29 20:27 51.24738 -0.20471 40234 ft 464 kts 232°
2026-04-29 20:28 51.20917 -0.28831 40219 ft 465 kts 232°
2026-04-29 20:28 51.17080 -0.37198 40222 ft 466 kts 232°
2026-04-29 20:29 51.13248 -0.45527 40222 ft 466 kts 232°
2026-04-29 20:29 51.09434 -0.53792 40214 ft 466 kts 232°
2026-04-29 20:30 51.06049 -0.62582 40213 ft 468 kts 245°
2026-04-29 20:30 51.04063 -0.72400 40207 ft 470 kts 257°
2026-04-29 20:31 51.02695 -0.82543 40205 ft 470 kts 257°
2026-04-29 20:31 51.01996 -0.87680 39715 ft 478 kts 257°
2026-04-29 20:31 51.01293 -0.92832 39089 ft 475 kts 256°
2026-04-29 20:32 51.00598 -0.97912 38471 ft 472 kts 256°
2026-04-29 20:32 50.99898 -1.03006 37845 ft 471 kts 256°
2026-04-29 20:32 50.99206 -1.08032 37225 ft 470 kts 256°
2026-04-29 20:32 50.98505 -1.13098 36635 ft 470 kts 256°
2026-04-29 20:33 50.97796 -1.18205 36048 ft 471 kts 256°
2026-04-29 20:33 50.97100 -1.23209 35399 ft 472 kts 256°
2026-04-29 20:33 50.96385 -1.28319 34619 ft 472 kts 256°
2026-04-29 20:33 50.95678 -1.33358 33836 ft 471 kts 255°
2026-04-29 20:34 50.94874 -1.38378 33096 ft 470 kts 253°
2026-04-29 20:34 50.94024 -1.43363 32340 ft 467 kts 253°
2026-04-29 20:34 50.93180 -1.48304 31590 ft 462 kts 253°
2026-04-29 20:34 50.92355 -1.53123 30854 ft 457 kts 253°
2026-04-29 20:35 50.91519 -1.57996 30089 ft 453 kts 253°
2026-04-29 20:35 50.90701 -1.62750 29345 ft 449 kts 253°
2026-04-29 20:35 50.89877 -1.67531 28596 ft 445 kts 252°
2026-04-29 20:35 50.89062 -1.72244 27853 ft 441 kts 252°
2026-04-29 20:36 50.88258 -1.76880 27112 ft 438 kts 252°
2026-04-29 20:36 50.87448 -1.81540 26338 ft 434 kts 252°
2026-04-29 20:36 50.86640 -1.86176 25575 ft 431 kts 252°
2026-04-29 20:36 50.85852 -1.90684 24928 ft 426 kts 252°
2026-04-29 20:37 50.85060 -1.95209 24290 ft 421 kts 252°
2026-04-29 20:37 50.84273 -1.99688 23657 ft 416 kts 252°
2026-04-29 20:37 50.83505 -2.04059 23030 ft 412 kts 252°
2026-04-29 20:37 50.82732 -2.08439 22401 ft 407 kts 252°
2026-04-29 20:38 50.81968 -2.12759 21712 ft 404 kts 252°
2026-04-29 20:38 50.81208 -2.17042 20969 ft 403 kts 251°
2026-04-29 20:38 50.80435 -2.21392 20203 ft 402 kts 251°
2026-04-29 20:38 50.79674 -2.25663 19443 ft 401 kts 251°
2026-04-29 20:39 50.78912 -2.29929 18704 ft 400 kts 250°
2026-04-29 20:39 50.78147 -2.34197 17921 ft 400 kts 250°
2026-04-29 20:39 50.77388 -2.38424 17202 ft 397 kts 250°
2026-04-29 20:39 50.76635 -2.42619 16764 ft 387 kts 250°
2026-04-29 20:40 50.75916 -2.46618 16395 ft 378 kts 250°
2026-04-29 20:40 50.75182 -2.50675 16006 ft 380 kts 250°
2026-04-29 20:40 50.74449 -2.54716 15621 ft 377 kts 250°
2026-04-29 20:40 50.73730 -2.58690 15256 ft 366 kts 250°
2026-04-29 20:41 50.73026 -2.62564 14855 ft 363 kts 250°
2026-04-29 20:41 50.72308 -2.66492 14360 ft 366 kts 249°
2026-04-29 20:41 50.71616 -2.70279 13898 ft 364 kts 249°
2026-04-29 20:41 50.70909 -2.74141 13409 ft 362 kts 249°
2026-04-29 20:42 50.70202 -2.77999 12934 ft 360 kts 249°
2026-04-29 20:42 50.69509 -2.81770 12446 ft 358 kts 249°
2026-04-29 20:42 50.68811 -2.85557 11966 ft 355 kts 249°
2026-04-29 20:42 50.68127 -2.89270 11504 ft 349 kts 249°
2026-04-29 20:43 50.67449 -2.92940 11017 ft 343 kts 249°
2026-04-29 20:43 50.66782 -2.96552 10739 ft 331 kts 249°
2026-04-29 20:43 50.66151 -2.99966 10630 ft 316 kts 249°
2026-04-29 20:43 50.65537 -3.03271 10508 ft 313 kts 249°
2026-04-29 20:44 50.64912 -3.06618 10244 ft 315 kts 249°
2026-04-29 20:44 50.64291 -3.09941 9910 ft 313 kts 249°
2026-04-29 20:44 50.63681 -3.13200 9584 ft 310 kts 249°
2026-04-29 20:44 50.63070 -3.16462 9263 ft 308 kts 249°
2026-04-29 20:45 50.62459 -3.19715 8877 ft 309 kts 249°
2026-04-29 20:45 50.61839 -3.23000 8199 ft 316 kts 249°
2026-04-29 20:45 50.61210 -3.26334 7522 ft 321 kts 249°
2026-04-29 20:45 50.60573 -3.29707 6875 ft 323 kts 249°
2026-04-29 20:46 50.59931 -3.33102 6214 ft 324 kts 249°
2026-04-29 20:46 50.59283 -3.36527 5568 ft 325 kts 249°
2026-04-29 20:46 50.58649 -3.39879 5142 ft 317 kts 249°
2026-04-29 20:46 50.58030 -3.43154 4522 ft 312 kts 248°
2026-04-29 20:47 50.57403 -3.46458 4038 ft 299 kts 248°
2026-04-29 20:47 50.56837 -3.49489 3931 ft 278 kts 248°
2026-04-29 20:47 50.56323 -3.52355 3895 ft 263 kts 252°
2026-04-29 20:47 50.56069 -3.55211 3754 ft 253 kts 260°
2026-04-29 20:48 50.55918 -3.57894 3617 ft 234 kts 260°
2026-04-29 20:48 50.55788 -3.60425 3640 ft 230 kts 260°
2026-04-29 20:48 50.55661 -3.62964 3597 ft 229 kts 260°
2026-04-29 20:48 50.55539 -3.65462 3606 ft 230 kts 259°
2026-04-29 20:49 50.55418 -3.67985 3598 ft 229 kts 260°
2026-04-29 20:49 50.55298 -3.70529 3601 ft 230 kts 260°
2026-04-29 20:49 50.55180 -3.73050 3610 ft 229 kts 259°
2026-04-29 20:49 50.55090 -3.75573 3586 ft 232 kts 266°
2026-04-29 20:50 50.55570 -3.77969 3564 ft 233 kts 309°
2026-04-29 20:50 50.56797 -3.79440 3590 ft 218 kts 347°
2026-04-29 20:50 50.58229 -3.80099 3583 ft 210 kts 359°
2026-04-29 20:50 50.59674 -3.80575 3598 ft 210 kts 360°
2026-04-29 20:51 50.61108 -3.81029 3596 ft 211 kts 360°
2026-04-29 20:51 50.62466 -3.82114 3583 ft 228 kts 326°
2026-04-29 20:51 50.63725 -3.83607 3565 ft 219 kts 346°
2026-04-29 20:51 50.65107 -3.83806 3585 ft 186 kts 30°
2026-04-29 20:52 50.66212 -3.82873 3607 ft 170 kts 50°
2026-04-29 20:52 50.66955 -3.81576 3610 ft 157 kts 69°
2026-04-29 20:52 50.67388 -3.80027 3605 ft 151 kts 81°
2026-04-29 20:52 50.67637 -3.78443 3599 ft 148 kts 85°
2026-04-29 20:53 50.67840 -3.76847 3611 ft 149 kts 86°
2026-04-29 20:53 50.68061 -3.75242 3624 ft 148 kts 84°
2026-04-29 20:53 50.68306 -3.73640 3616 ft 149 kts 84°
2026-04-29 20:53 50.68562 -3.72054 3623 ft 150 kts 83°
2026-04-29 20:54 50.69080 -3.68859 3399 ft 151 kts 83°
2026-04-29 20:54 50.69338 -3.67267 3221 ft 148 kts 84°
2026-04-29 20:54 50.69590 -3.65687 3035 ft 147 kts 83°
2026-04-29 20:55 50.69835 -3.64139 2828 ft 146 kts 82°
2026-04-29 20:55 50.70081 -3.62589 2635 ft 143 kts 83°
2026-04-29 20:55 50.70325 -3.61049 2447 ft 143 kts 82°
2026-04-29 20:55 50.70570 -3.59516 2246 ft 143 kts 81°
2026-04-29 20:56 50.70810 -3.58016 2056 ft 141 kts 81°
2026-04-29 20:56 50.71048 -3.56521 1864 ft 133 kts 81°
2026-04-29 20:56 50.71255 -3.55252 1737 ft 108 kts 80°
2026-04-29 20:56 50.71438 -3.54112 1547 ft 105 kts 80°
2026-04-29 20:57 50.71615 -3.52968 1419 ft 107 kts 80°
2026-04-29 20:57 50.71787 -3.51825 1277 ft 108 kts 80°
2026-04-29 20:57 50.71969 -3.50625 1129 ft 111 kts 79°
2026-04-29 20:57 50.72158 -3.49410 953 ft 114 kts 79°
2026-04-29 20:58 50.72354 -3.48176 812 ft 117 kts 78°
2026-04-29 20:58 50.72558 -3.46910 670 ft 119 kts 76°
2026-04-29 20:58 50.72779 -3.45618 557 ft 123 kts 76°
2026-04-29 20:58 50.72992 -3.44277 341 ft 124 kts 77°
2026-04-29 20:59 50.73193 -3.42907 166 ft 128 kts 75°
2026-04-29 20:59 50.73394 -3.41608 170 ft 98 kts 74°
2026-04-29 20:59 50.73718 -3.40548 324 ft 131 kts 56°
2026-04-29 20:59 50.74143 -3.39281 1338 ft 138 kts 70°
2026-04-29 21:00 50.74578 -3.37769 1983 ft 171 kts 72°
2026-04-29 21:00 50.75065 -3.35906 2670 ft 191 kts 76°
2026-04-29 21:00 50.75536 -3.33849 3275 ft 206 kts 77°
2026-04-29 21:00 50.76088 -3.31819 3488 ft 197 kts 65°
2026-04-29 21:01 50.77283 -3.30572 3472 ft 221 kts 24°
2026-04-29 21:01 50.78877 -3.30805 3461 ft 240 kts 353°
2026-04-29 21:01 50.80436 -3.31874 3472 ft 251 kts 329°
2026-04-29 21:01 50.81443 -3.34172 3450 ft 258 kts 285°
2026-04-29 21:02 50.81496 -3.36970 3471 ft 255 kts 257°
2026-04-29 21:02 50.81273 -3.39745 3474 ft 252 kts 257°
2026-04-29 21:02 50.81054 -3.42502 3477 ft 251 kts 257°
2026-04-29 21:02 50.80831 -3.45255 3494 ft 251 kts 257°
2026-04-29 21:03 50.80609 -3.47996 3498 ft 251 kts 257°
2026-04-29 21:03 50.80388 -3.50707 3490 ft 251 kts 257°
2026-04-29 21:03 50.80162 -3.53488 3492 ft 251 kts 257°
2026-04-29 21:03 50.79936 -3.56241 3489 ft 252 kts 257°
2026-04-29 21:04 50.79714 -3.58985 3507 ft 250 kts 257°
2026-04-29 21:04 50.79493 -3.61727 3791 ft 252 kts 257°
2026-04-29 21:04 50.79271 -3.64466 4097 ft 252 kts 257°
2026-04-29 21:04 50.79050 -3.67204 4389 ft 252 kts 257°
2026-04-29 21:05 50.78831 -3.69943 4698 ft 252 kts 257°
2026-04-29 21:05 50.78607 -3.72689 4953 ft 252 kts 257°
2026-04-29 21:05 50.78380 -3.75453 4983 ft 251 kts 257°
2026-04-29 21:05 50.78157 -3.78198 5003 ft 251 kts 257°
2026-04-29 21:06 50.77932 -3.80948 4990 ft 251 kts 257°
2026-04-29 21:06 50.77708 -3.83703 4982 ft 251 kts 257°
2026-04-29 21:06 50.77476 -3.86433 4981 ft 250 kts 254°
2026-04-29 21:06 50.76812 -3.88823 4989 ft 231 kts 219°
2026-04-29 21:07 50.75508 -3.90048 4983 ft 204 kts 180°
2026-04-29 21:07 50.74230 -3.89688 4952 ft 182 kts 142°
2026-04-29 21:07 50.73340 -3.88312 4776 ft 176 kts 124°
2026-04-29 21:07 50.72699 -3.86692 4690 ft 173 kts 116°
2026-04-29 21:08 50.72180 -3.84941 4624 ft 173 kts 114°
2026-04-29 21:08 50.71684 -3.83197 4559 ft 173 kts 114°
2026-04-29 21:08 50.71193 -3.81466 4485 ft 172 kts 114°
2026-04-29 21:08 50.70703 -3.79740 4405 ft 172 kts 114°
2026-04-29 21:09 50.70212 -3.77996 4324 ft 171 kts 112°
2026-04-29 21:09 50.69853 -3.76204 4244 ft 171 kts 106°
2026-04-29 21:09 50.69550 -3.74396 4172 ft 170 kts 105°
2026-04-29 21:09 50.69246 -3.72564 4097 ft 169 kts 105°
2026-04-29 21:10 50.68976 -3.70746 3833 ft 176 kts 101°
2026-04-29 21:10 50.69006 -3.68816 3471 ft 170 kts 86°
2026-04-29 21:10 50.69284 -3.67073 3215 ft 160 kts 81°
2026-04-29 21:10 50.69599 -3.65465 2995 ft 148 kts 82°
2026-04-29 21:11 50.69877 -3.63945 2775 ft 142 kts 82°
2026-04-29 21:11 50.70122 -3.62436 2593 ft 143 kts 83°
2026-04-29 21:11 50.70355 -3.60912 2431 ft 143 kts 83°
2026-04-29 21:11 50.70586 -3.59393 2234 ft 142 kts 81°
2026-04-29 21:12 50.70823 -3.57885 2037 ft 141 kts 81°
2026-04-29 21:12 50.71062 -3.56385 1850 ft 139 kts 79°
2026-04-29 21:12 50.71288 -3.55005 1704 ft 115 kts 79°
2026-04-29 21:12 50.71488 -3.53794 1531 ft 110 kts 80°
2026-04-29 21:13 50.71675 -3.52605 1375 ft 109 kts 80°
2026-04-29 21:13 50.71856 -3.51426 1231 ft 111 kts 79°
2026-04-29 21:13 50.72044 -3.50211 1110 ft 113 kts 78°
2026-04-29 21:13 50.72242 -3.48951 953 ft 116 kts 77°
2026-04-29 21:14 50.72458 -3.47700 831 ft 118 kts 77°
2026-04-29 21:14 50.72667 -3.46422 780 ft 121 kts 77°
2026-04-29 21:14 50.72863 -3.45099 470 ft 122 kts 77°
2026-04-29 21:14 50.73064 -3.43761 246 ft 126 kts 76°
2026-04-29 21:15 50.73275 -3.42381 107 ft 124 kts 75°
2026-04-29 21:15 50.73451 -3.41295 97 ft 47 kts 78°
2026-04-29 21:15 50.73467 -3.41088 96 ft 12 kts 114°
2026-04-29 21:15 50.73397 -3.41051 96 ft 9 kts 171°
2026-04-29 21:16 50.73322 -3.41043 96 ft 17 kts 178°
2026-04-29 21:16 50.73223 -3.41130 96 ft 19 kts 254°
2026-04-29 21:16 50.73204 -3.41306 96 ft 16 kts 268°
2026-04-29 21:16 50.73208 -3.41479 96 ft 15 kts 271°
2026-04-29 21:17 50.73210 -3.41673 96 ft 18 kts 271°
2026-04-29 21:17 50.73175 -3.41824 96 ft 15 kts 238°
2026-04-29 21:17 50.73131 -3.41941 96 ft 11 kts 242°
2026-04-29 21:17 50.73096 -3.42064 96 ft 4 kts 238°
2026-04-29 21:18 50.73056 -3.42110 96 ft 7 kts 118°
2026-04-29 21:18 50.73033 -3.42055 96 ft 3 kts 131°
2026-04-29 21:18 50.73026 -3.42043 96 ft 0 kts 130°